TimePDT,TemperatureF,Dew PointF,Humidity,Sea Level PressureIn,VisibilityMPH,Wind Direction,Wind SpeedMPH,Gust SpeedMPH,PrecipitationIn,Events,Conditions,WindDirDegrees,DateUTC
12:00 AM,69.8,41.0,35,29.79,9.0,SSE,11.5,-,N/A,,Clear,160,2013-05-07 07:00:00
1:00 AM,66.2,41.0,40,29.83,9.0,SSE,9.2,-,N/A,,Clear,160,2013-05-07 08:00:00
2:00 AM,61,42,37,29.85,9,South,4.6,,,,,180,2013-05-07 09:00:00
2:00 AM,60.8,41.0,48,29.85,9.0,South,4.6,-,N/A,,Clear,190,2013-05-07 09:00:00
3:00 AM,59.0,41.0,51,29.87,9.0,South,4.6,-,N/A,,Clear,190,2013-05-07 10:00:00
4:00 AM,55.4,42.8,63,29.90,9.0,South,3.5,-,N/A,,Clear,190,2013-05-07 11:00:00
5:00 AM,53,42,58,29.92,9,Calm,Calm,,,,,,2013-05-07 12:00:00
5:00 AM,51.8,42.8,71,29.92,9.0,Calm,Calm,-,N/A,,Clear,0,2013-05-07 12:00:00
6:00 AM,51.8,42.8,71,29.95,9.0,SSE,2.3,-,N/A,,Clear,160,2013-05-07 13:00:00
7:00 AM,50.0,42.8,76,29.97,9.0,SSE,5.8,-,N/A,,Clear,150,2013-05-07 14:00:00
8:00 AM,51.8,44.6,76,29.97,9.0,SSE,4.6,-,N/A,,Clear,150,2013-05-07 15:00:00
9:00 AM,59.0,42.8,55,29.96,9.0,SSE,8.1,-,N/A,,Clear,160,2013-05-07 16:00:00
10:00 AM,66.2,44.6,46,29.94,9.0,Calm,Calm,-,N/A,,Clear,0,2013-05-07 17:00:00
11:00 AM,72,40,21,29.91,9,North,5.8,,,,,10,2013-05-07 18:00:00
11:00 AM,71.6,41.0,33,29.91,9.0,North,6.9,-,N/A,,Clear,10,2013-05-07 18:00:00
12:00 PM,77.0,35.6,22,29.88,9.0,North,8.1,-,N/A,,Clear,10,2013-05-07 19:00:00
1:00 PM,82.4,35.6,19,29.85,9.0,NNE,3.5,-,N/A,,Clear,30,2013-05-07 20:00:00
2:00 PM,86,39,10,29.83,9,West,2.3,,,,,280,2013-05-07 21:00:00
2:00 PM,86.0,39.2,19,29.83,9.0,WNW,2.3,-,N/A,,Clear,300,2013-05-07 21:00:00
3:00 PM,86.0,39.2,19,29.81,9.0,Calm,Calm,-,N/A,,Clear,0,2013-05-07 22:00:00
4:00 PM,89.6,39.2,17,29.78,9.0,South,8.1,-,N/A,,Clear,180,2013-05-07 23:00:00
5:00 PM,89,38,9,29.77,9,South,10.4,,,,,180,2013-05-08 00:00:00
5:00 PM,89.6,39.2,17,29.77,9.0,South,11.5,-,N/A,,Clear,180,2013-05-08 00:00:00
6:00 PM,87.8,39.2,18,29.77,9.0,South,9.2,-,N/A,,Clear,190,2013-05-08 01:00:00
7:00 PM,82.4,37.4,20,29.78,9.0,SW,5.8,-,N/A,,Clear,220,2013-05-08 02:00:00
8:00 PM,76,40,17,29.79,9,SSE,8.1,,,,,160,2013-05-08 03:00:00
8:00 PM,77.0,41.0,28,29.79,9.0,SSE,6.9,-,N/A,,Clear,160,2013-05-08 03:00:00
9:00 PM,73.4,41.0,31,29.82,9.0,South,6.9,-,N/A,,Clear,180,2013-05-08 04:00:00
10:00 PM,71.6,41.0,33,29.85,9.0,SSE,11.5,-,N/A,,Clear,160,2013-05-08 05:00:00
11:00 PM,71,41,23,29.88,9,South,12.7,,,,,170,2013-05-08 06:00:00
11:00 PM,71.6,41.0,33,29.88,9.0,SSE,15.0,-,N/A,,Clear,160,2013-05-08 06:00:00